Flag for U.S.A. Weather past 2 weeks in Durango, Colorado, U.S.A.

Now
56 °F

Clear.


Feels Like: 56 °F
Forecast: 52 / 82 °F
Wind: No wind

Location: Durango-La Plata County Airport

Current Time: Jul 28, 2015 at 3:18:00 AM

Latest Report: Jul 28, 2015 at 1:53 AM


Visibility: 10 mi

Pressure: 29.90 "Hg (23.58 "Hg at 1989m altitude)

Humidity: 47%

Dew point: 36 °F

Location of DurangoLocation

Historic Weather in Durango — Graph

°F

Durango temperature yesterday

Maximum temperature yesterday: 86 °F (at 4:53 PM)
Minimum temperature yesterday: 58 °F (at 5:53 AM)
Average temperature yesterday: 71 °F

Past Weeks' High & Low Weather Summary

 TemperatureHumidityPressure
High86 °F (Jul 25, 4:53 PM)96% (Jul 19, 5:53 AM)30.20 "Hg (Jul 19, 5:53 AM)
Low49 °F (Jul 17, 3:53 AM)13% (Jul 22, 4:53 PM)29.80 "Hg (Jul 27, 6:53 PM)
Average68 °F49%29.97 "Hg
* Reported Jul 13 1:53 AM — Jul 28 1:53 AM, Durango, Weather by CustomWeather, © 2015

Note: Actual official high and low records may vary slightly from our data, if they occured in-between our weather recording intervals... More about our weather records

Advertising

Durango weather history for previous 24 hours

 ConditionsComfort  
Time TempWeatherWind HumidityBarometerVisibility
1:53 AM
Tue, Jul 28
56 °FClear.No wind47%29.90 "Hg10 mi
12:53 AM60 °FClear.6 mph42%29.89 "Hg10 mi
11:53 PM
Mon, Jul 27
63 °FClear.9 mph38%29.90 "Hg10 mi
10:53 PM59 °FClear.5 mph38%29.93 "Hg10 mi
9:53 PM71 °FClear.No wind22%29.87 "Hg10 mi
8:53 PM76 °FSunny.9 mph18%29.84 "Hg10 mi
7:53 PM82 °FScattered clouds.8 mph18%29.81 "Hg10 mi
6:53 PM84 °FScattered clouds.6 mph18%29.80 "Hg10 mi
5:53 PM85 °FScattered clouds.12 mph17%29.82 "Hg10 mi
4:53 PM86 °FPassing clouds.13 mph17%29.82 "Hg10 mi
3:53 PM85 °FPassing clouds.12 mph19%29.84 "Hg10 mi
2:53 PM83 °FPartly sunny.13 mph19%29.85 "Hg10 mi
1:53 PM82 °FSunny.8 mph20%29.88 "Hg10 mi
12:53 PM79 °FSunny.5 mph31%29.89 "Hg10 mi
11:53 AM75 °FPassing clouds.5 mph39%29.93 "Hg10 mi
10:53 AM69 °FPartly sunny.8 mph49%29.96 "Hg10 mi
9:53 AM69 °FScattered clouds.6 mph49%29.94 "Hg10 mi
8:53 AM64 °FSunny.3 mph63%29.95 "Hg10 mi
7:53 AM61 °FPartly sunny.3 mph67%29.94 "Hg10 mi
6:53 AM60 °FPassing clouds.3 mph67%29.92 "Hg10 mi
5:53 AM58 °FClear.6 mph72%29.91 "Hg10 mi
4:53 AM60 °FPassing clouds.No wind67%29.90 "Hg10 mi
3:53 AM59 °FClear.3 mph67%29.88 "Hg10 mi
Weather by CustomWeather, © 2015

See weather overviewHow to use our weather pages